Location: Newark
(45.8167°N, 8.7833°E)
Time: 22:41:43
(UTC+00:00)

Envisat - Visible Passes

Search period start: 13 October 2019 00:00
Search period end: 23 October 2019 00:00
Orbit: 764 x 766 km, 98.1° (Epoch: 13 October)

Date Brightness Start Highest point End Pass type
(mag) Time Alt. Az. Time Alt. Az. Time Alt. Az.
13 Oct 5.4 18:31:50 10° SSW 18:35:54 24° W 18:40:01 10° NW visible
14 Oct 6.4 05:00:00 10° ENE 05:02:22 13° E 05:04:44 10° ESE visible
14 Oct 4.0 17:53:59 10° S 17:58:54 50° W 18:03:51 10° NNW visible
15 Oct 3.0 17:17:01 10° SSE 17:22:05 78° ENE 17:27:11 10° N visible
15 Oct 6.0 18:59:03 10° WSW 19:01:42 14° W 19:04:22 10° NW visible
16 Oct 5.0 18:20:08 10° SSW 18:24:33 30° W 18:29:01 10° NNW visible
17 Oct 6.7 04:50:23 10° E 04:50:56 10° E 04:51:29 10° E visible
17 Oct 3.5 17:42:34 10° S 17:47:36 63° W 17:52:40 10° NNW visible
18 Oct 3.0 17:05:51 10° SSE 17:10:51 63° ENE 17:15:53 10° N visible
18 Oct 5.8 18:46:55 10° SW 18:50:19 18° W 18:53:43 10° NW visible
19 Oct 6.1 05:13:20 10° NE 05:16:48 18° E 05:20:14 10° SE visible
19 Oct 4.6 18:08:32 10° SSW 18:13:13 37° W 18:17:56 10° NNW visible
20 Oct 3.2 17:31:15 10° S 17:36:19 79° WSW 17:41:26 10° NNW visible
21 Oct 3.2 16:54:44 10° SE 16:59:37 50° ENE 17:04:32 10° N visible
21 Oct 5.5 18:35:01 10° SW 18:38:55 22° W 18:42:52 10° NW visible
22 Oct 6.3 05:02:39 10° NE 05:05:24 14° E 05:08:08 10° ESE visible
22 Oct 4.1 17:57:01 10° S 18:01:53 46° W 18:06:47 10° NNW visible
